Torna al catalogo

STARLINK-35462

AttivoComunicazioniVLEO
NORAD 65877·PAYLOAD·🇺🇸 United States

Lanciato Oct 3, 2025 da Vandenberg Space Force Base

Loading…

Prossimi Passaggi (prossime 24 ore)

TLE

AggiornatoSource: CelesTrak SupGP

Epoca: Sep 14, 2026, 14:57 UTC

1 65877C 25223Z   26257.62340278  .00048082  00000+0  14201-2 0  2579
2 65877  53.1567 134.9619 0001190 104.5689 312.1797 15.34377022    14

Traccia STARLINK-35462 in tempo reale con AllMySat

Download on the App Store